This demonstration page uses our WeatherBlox Daily Observations layout. Learn more.

Left ArrowRight Arrow

34.74481, -87.66753

Hourly Observations for May 18, 2019

Temp ( °F °C ) Dew Point ( °F °C ) Humidity (%) Winds ( mph kmh ) Pressure ( in mb ) Visibility ( mi km ) Precip ( " mm )
12:53 am 00:53 Clear 69 20.6 65 18.3 87 87 Calm 29.96 1015 10 16 0.00 0.00
1:53 am 01:53 Clear 67 19.4 64 17.8 91 91 Calm 29.95 1014 10 16 0.00 0.00
2:53 am 02:53 Clear 68 20 64 17.8 87 87 Calm 29.95 1014 10 16 0.00 0.00
3:53 am 03:53 Clear 70 21.1 65 18.3 84 84 SSW 5 7 29.95 1014 10 16 0.00 0.00
4:53 am 04:53 Clear 68 20 64 17.8 87 87 SE 3 6 29.96 1015 10 16 0.00 0.00
5:53 am 05:53 Sunny 66 18.9 63 17.2 90 90 SSE 3 6 29.97 1015 10 16 0.00 0.00
6:53 am 06:53 Sunny 70 21.1 66 18.9 87 87 Calm 29.98 1015 10 16 0.00 0.00
7:53 am 07:53 Sunny 74 23.3 65 18.3 74 74 S 6 9 30.00 1016 10 16 0.00 0.00
8:53 am 08:53 Sunny 78 25.6 65 18.3 64 64 SSW 7 11 30.02 1017 10 16 0.00 0.00
9:53 am 09:53 Sunny 80 26.7 65 18.3 60 60 SSE 6 9 30.01 1016 10 16 0.00 0.00
10:53 am 10:53 Sunny 83 28.3 63 17.2 51 51 S 9 15 29.98 1015 10 16 0.00 0.00
11:53 am 11:53 Sunny 85 29.4 64 17.8 50 50 S 15 24 29.97 1015 10 16 0.00 0.00
12:53 pm 12:53 Mostly Sunny 87 30.6 63 17.2 45 45 SSE 17 28 29.95 1014 10 16 0.00 0.00
1:53 pm 13:53 Mostly Cloudy 87 30.6 64 17.8 46 46 SSW 12 19 29.94 1014 10 16 0.00 0.00
2:53 pm 14:53 Sunny 87 30.6 64 17.8 46 46 SSW 14 22 29.93 1014 10 16 0.00 0.00
3:53 pm 15:53 Sunny 88 31.1 62 16.7 42 42 SSW 12 19 29.92 1013 10 16 0.00 0.00
4:53 pm 16:53 Sunny 87 30.6 60 15.6 40 40 S 15 24 29.90 1013 10 16 0.00 0.00
5:53 pm 17:53 Sunny 86 30 61 16.1 43 43 S 12 19 29.89 1012 10 16 0.00 0.00
6:53 pm 18:53 Sunny 83 28.3 60 15.6 46 46 S 10 17 29.88 1012 10 16 0.00 0.00
7:53 pm 19:53 Clear 79 26.1 60 15.6 52 52 SSE 7 11 29.88 1012 10 16 0.00 0.00
8:53 pm 20:53 Clear 76 24.4 62 16.7 62 62 SSE 7 11 29.88 1012 10 16 0.00 0.00
9:53 pm 21:53 Clear 74 23.3 62 16.7 67 67 S 3 6 29.92 1013 10 16 0.00 0.00
10:53 pm 22:53 Clear 74 23.3 63 17.2 69 69 SSE 6 9 29.91 1013 10 16 0.00 0.00
11:53 pm 23:53 Clear 77 25 62 16.7 60 60 S 8 13 29.90 1012 10 16 0.00 0.00

Powered by AerisWeather